1487739600.02,37505,10.31,72600.3,-11.49,-24.11,-31.01,0,*6C
1487739601.27,37506,10.31,72606.0,-11.47,-23.79,-30.67,0,*69
1487739602.54,37507,10.31,72572.3,-11.47,-23.29,-30.27,0,*69
1487739603.83,37508,10.31,72586.5,-11.47,-23.49,-30.51,0,*61
1487739605.06,37509,10.31,72594.5,-11.45,-23.75,-30.67,0,*68
1487739606.3,37510,10.31,72588.0,-11.45,-23.59,-30.61,0,*68
1487739607.51,37511,10.31,72598.5,-11.45,-23.39,-30.23,0,*69
1487739608.72,37512,10.31,72566.8,-11.45,-23.39,-30.45,0,*6A
1487739609.97,37513,10.31,72568.0,-11.45,-23.75,-30.61,0,*65
1487739611.19,37514,10.31,72572.0,-11.45,-23.89,-30.83,0,*6D
1487739612.44,37515,10.31,72584.8,-11.45,-23.89,-30.77,0,*67
1487739613.66,37516,10.31,72580.8,-11.45,-23.59,-30.45,0,*68
1487739614.91,37517,10.31,72570.3,-11.43,-23.39,-30.39,0,*62
1487739616.17,37518,10.31,72576.3,-11.43,-23.75,-30.67,0,*6E
1487739617.46,37519,10.31,72558.3,-11.43,-23.85,-30.77,0,*61
1487739618.68,37520,10.31,72586.0,-11.41,-24.05,-31.01,0,*66
1487739619.95,37521,10.31,72576.8,-11.43,-23.89,-30.61,0,*61
1487739621.22,37522,10.31,72584.0,-11.43,-23.95,-30.83,0,*63
1487739622.45,37523,10.31,72584.0,-11.41,-23.65,-30.45,0,*65
1487739623.67,37524,10.31,72590.0,-11.41,-23.09,-29.95,0,*6D
1487739624.93,37525,10.31,72592.8,-11.41,-22.73,-29.51,0,*68
1487739626.17,37526,10.31,72598.3,-11.41,-22.57,-29.51,0,*6D
1487739627.38,37527,10.31,72602.0,-11.41,-22.87,-29.67,0,*64
1487739628.62,37528,10.31,72598.8,-11.39,-22.87,-29.73,0,*61
1487739629.86,37529,10.31,72606.5,-11.37,-22.87,-29.67,0,*6B
1487739631.13,37530,10.31,72602.5,-11.37,-23.19,-30.27,0,*69
1487739632.4,37531,10.31,72596.3,-11.37,-23.13,-30.01,0,*66
1487739633.62,37532,10.31,72588.3,-11.35,-23.13,-30.11,0,*66
1487739634.86,37533,10.31,72584.3,-11.35,-23.33,-30.33,0,*65
1487739636.13,37534,10.31,72574.0,-11.35,-23.65,-30.51,0,*65
1487739637.37,37535,10.31,72566.5,-11.33,-23.89,-31.01,0,*64
1487739638.64,37536,10.31,72568.3,-11.35,-24.15,-31.23,0,*63
1487739639.87,37537,10.31,72586.3,-11.35,-24.57,-31.45,0,*64
1487739641.15,37538,10.31,72590.5,-11.37,-24.41,-31.45,0,*6E
1487739642.42,37539,10.31,72596.0,-11.37,-24.57,-31.61,0,*6E
1487739643.68,37540,10.31,72598.8,-11.39,-24.51,-31.51,0,*6B
1487739644.93,37541,10.31,72592.8,-11.37,-24.47,-31.33,0,*67
1487739646.21,37542,10.31,72588.0,-11.39,-24.21,-31.23,0,*6B
1487739647.46,37543,10.31,72590.3,-11.39,-24.47,-31.39,0,*61
1487739648.69,37544,10.31,72594.5,-11.39,-24.35,-31.29,0,*62
1487739649.99,37545,10.31,72604.8,-11.37,-24.11,-31.23,0,*61
1487739651.22,37546,10.31,72604.0,-11.39,-24.31,-31.29,0,*64
1487739652.48,37547,10.31,72594.3,-11.39,-24.47,-31.39,0,*65
1487739653.7,37548,10.31,72598.5,-11.39,-24.35,-31.29,0,*6E
1487739654.98,37549,10.31,72596.5,-11.39,-23.99,-30.89,0,*65
1487739656.25,37550,10.31,72592.3,-11.39,-23.49,-30.39,0,*6B
1487739657.53,37551,10.31,72602.0,-11.37,-23.49,-30.33,0,*6E
1487739658.77,37552,10.31,72598.3,-11.39,-23.09,-30.05,0,*62
1487739660.02,37553,10.31,72586.8,-11.37,-22.87,-29.67,0,*66
1487739661.31,37554,10.31,72576.0,-11.33,-22.77,-29.39,0,*61
1487739662.58,37555,10.31,72582.5,-11.33,-22.77,-29.45,0,*6B
1487739663.82,37556,10.31,72592.0,-11.33,-23.43,-30.27,0,*62
1487739665.07,37557,10.31,72588.3,-11.35,-23.79,-30.51,0,*6D
1487739666.33,37558,10.31,72586.0,-11.33,-23.69,-30.45,0,*60
1487739667.59,37559,10.31,72582.8,-11.33,-23.23,-29.95,0,*6A
1487739668.84,37560,10.31,72602.8,-11.31,-22.93,-29.73,0,*60
1487739670.1,37561,10.31,72608.0,-11.31,-22.73,-29.39,0,*61
1487739671.31,37562,10.31,72610.3,-11.31,-22.27,-29.07,0,*6E
1487739672.57,37563,10.31,72608.8,-11.25,-22.37,-29.17,0,*6A
1487739673.82,37564,10.31,72612.5,-11.25,-22.93,-29.83,0,*6E
1487739675.11,37565,10.31,72598.3,-11.25,-23.03,-29.89,0,*6D
1487739676.33,37566,10.31,72588.0,-11.23,-22.97,-29.79,0,*6B
1487739677.57,37567,10.31,72584.5,-11.23,-23.03,-29.95,0,*64
1487739678.81,37568,10.31,72580.0,-11.23,-23.49,-30.23,0,*60
1487739680.06,37569,10.31,72582.0,-11.23,-23.19,-29.95,0,*61
1487739681.32,37570,10.31,72586.3,-11.21,-23.03,-29.79,0,*62
1487739682.61,37571,10.31,72586.3,-11.21,-23.33,-30.17,0,*60
1487739683.88,37572,10.31,72580.5,-11.21,-23.33,-30.11,0,*65
1487739685.17,37573,10.31,72580.0,-11.21,-23.49,-30.17,0,*6F
1487739686.45,37574,10.31,72572.8,-11.21,-23.43,-30.17,0,*62
1487739687.67,37575,10.31,72578.3,-11.23,-23.59,-30.23,0,*6D
1487739688.94,37576,10.31,72572.8,-11.19,-23.19,-30.01,0,*63
1487739690.16,37577,10.31,72562.0,-11.19,-23.13,-29.95,0,*6D
1487739691.45,37578,10.31,72570.8,-11.21,-23.29,-30.01,0,*65
1487739692.72,37579,10.31,72574.0,-11.19,-23.29,-30.17,0,*68
1487739693.99,37580,10.31,72572.8,-11.21,-23.85,-30.67,0,*64
1487739695.24,37581,10.31,72578.5,-11.19,-24.11,-31.05,0,*61
1487739696.46,37582,10.31,72582.8,-11.19,-23.59,-30.33,0,*6D
1487739697.72,37583,10.31,72578.3,-11.19,-23.69,-30.51,0,*6B
1487739698.97,37584,10.31,72580.0,-11.21,-23.59,-30.33,0,*60
1487739700.2,37585,10.31,72580.3,-11.19,-23.79,-30.67,0,*69
1487739701.42,37586,10.31,72580.8,-11.19,-24.31,-31.01,0,*60
1487739702.65,37587,10.31,72580.0,-11.19,-24.47,-31.17,0,*67
1487739703.92,37588,10.31,72572.3,-11.19,-24.71,-31.57,0,*69
1487739705.22,37589,10.31,72570.3,-11.21,-24.71,-31.57,0,*63
1487739706.44,37590,10.31,72580.0,-11.19,-24.61,-31.45,0,*62
1487739707.7,37591,10.31,72588.3,-11.21,-23.69,-30.33,0,*67
1487739708.95,37592,10.31,72594.3,-11.21,-22.97,-29.67,0,*6D
1487739710.19,37593,10.31,72590.3,-11.19,-23.03,-29.79,0,*64
1487739711.41,37594,10.31,72588.3,-11.19,-23.59,-30.23,0,*6B
1487739712.68,37595,10.31,72586.8,-11.19,-23.85,-30.73,0,*6E
1487739713.92,37596,10.31,72580.3,-11.17,-23.43,-30.11,0,*6D
1487739715.16,37597,10.31,72574.3,-11.15,-23.43,-30.05,0,*6B
1487739716.43,37598,10.31,72572.3,-11.15,-23.03,-29.73,0,*69
1487739717.7,37599,10.31,72566.5,-11.17,-23.09,-29.89,0,*65
1487739718.98,37600,10.31,72568.3,-11.17,-23.43,-30.17,0,*67
1487739720.21,37601,10.31,72568.3,-11.15,-23.89,-30.55,0,*64
1487739721.45,37602,10.31,72562.3,-11.17,-23.39,-30.11,0,*6E
1487739722.71,37603,10.31,72558.8,-11.15,-23.23,-29.89,0,*6F
1487739723.97,37604,10.31,72548.8,-11.13,-23.49,-30.11,0,*6B
1487739725.24,37605,10.31,72548.5,-11.13,-23.75,-30.55,0,*65
1487739726.49,37606,10.31,72550.8,-11.13,-24.47,-31.17,0,*67
1487739727.73,37607,10.31,72550.3,-11.13,-24.61,-31.33,0,*64
1487739728.95,37608,10.31,72542.5,-11.15,-24.61,-31.33,0,*6D
1487739730.22,37609,10.31,72530.5,-11.17,-24.57,-31.39,0,*61
1487739731.52,37610,10.31,72562.0,-11.17,-24.25,-31.11,0,*66
1487739732.74,37611,10.31,72572.3,-11.15,-24.35,-31.17,0,*62
1487739734.0,37612,10.31,72580.5,-11.15,-24.67,-31.51,0,*64
1487739735.27,37613,10.31,72582.0,-11.17,-24.35,-30.95,0,*69
1487739736.55,37614,10.31,72580.5,-11.15,-24.21,-30.89,0,*64
1487739737.77,37615,10.31,72592.5,-11.15,-24.31,-31.05,0,*61
1487739739.04,37616,10.31,72590.8,-11.17,-24.35,-31.11,0,*61
1487739740.34,37617,10.31,72582.3,-11.17,-24.25,-31.11,0,*61
1487739741.64,37618,10.31,72586.5,-11.17,-24.41,-31.11,0,*6C
1487739742.92,37619,10.31,72594.5,-11.15,-24.21,-30.77,0,*68
1487739744.17,37620,10.31,72604.5,-11.15,-24.05,-30.77,0,*64
1487739745.45,37621,10.31,72602.0,-11.17,-24.05,-30.77,0,*67
1487739746.75,37622,10.31,72592.8,-11.17,-24.21,-30.95,0,*6E
1487739748.02,37623,10.31,72584.8,-11.17,-24.25,-31.01,0,*67
1487739749.31,37624,10.31,72594.3,-11.17,-23.95,-30.51,0,*68
1487739750.53,37625,10.31,72602.8,-11.15,-23.75,-30.27,0,*64
1487739751.79,37626,10.31,72606.5,-11.15,-23.49,-30.05,0,*68
1487739753.07,37627,10.31,72592.3,-11.15,-24.15,-30.77,0,*62
1487739754.29,37628,10.31,72598.0,-11.15,-24.61,-31.45,0,*6E
1487739755.53,37629,10.31,72590.5,-11.15,-24.35,-30.95,0,*62
1487739756.82,37630,10.31,72586.5,-11.17,-23.95,-30.51,0,*6D
1487739758.06,37631,10.31,72592.3,-11.15,-23.89,-30.39,0,*6D
1487739759.28,37632,10.31,72598.3,-11.15,-23.75,-30.23,0,*66
1487739760.52,37633,10.31,72582.0,-11.15,-23.89,-30.55,0,*65
1487739761.78,37634,10.31,72552.3,-11.15,-23.19,-29.73,0,*67
1487739763.05,37635,10.31,72528.0,-11.13,-23.23,-29.83,0,*66
1487739764.28,37636,10.31,72530.3,-11.11,-22.87,-29.51,0,*67
1487739765.55,37637,10.31,72546.5,-11.11,-23.49,-30.05,0,*6C
1487739766.81,37638,10.31,72540.8,-11.11,-23.69,-30.17,0,*62
1487739768.09,37639,10.31,72546.8,-11.09,-23.69,-30.39,0,*66
1487739769.38,37640,10.31,72552.0,-11.09,-24.15,-30.73,0,*6A
1487739770.62,37641,10.31,72556.3,-11.11,-24.57,-31.23,0,*60
1487739771.87,37642,10.31,72554.5,-11.13,-24.61,-31.17,0,*63
1487739773.08,37643,10.31,72566.8,-11.11,-24.57,-31.29,0,*68
1487739774.35,37644,10.31,72562.8,-11.11,-24.67,-31.39,0,*6D
1487739775.59,37645,10.31,72564.5,-11.11,-24.57,-31.11,0,*65
1487739776.89,37646,10.31,72570.0,-11.13,-23.99,-30.73,0,*64
1487739778.11,37647,10.31,72568.0,-11.11,-23.79,-30.33,0,*6D
1487739779.37,37648,10.31,72572.5,-11.11,-23.65,-30.05,0,*6A
1487739780.64,37649,10.31,72564.8,-11.13,-24.05,-30.73,0,*69
1487739781.91,37650,10.31,72558.3,-11.11,-23.85,-30.51,0,*6C
1487739783.17,37651,10.31,72564.0,-11.11,-23.53,-30.05,0,*67
1487739784.4,37652,10.31,72582.0,-11.11,-23.69,-30.23,0,*69
1487739785.69,37653,10.31,72576.5,-11.09,-23.95,-30.55,0,*63
1487739786.95,37654,10.31,72582.8,-11.09,-24.15,-30.67,0,*6A
1487739788.21,37655,10.31,72570.3,-11.09,-23.85,-30.23,0,*65
1487739789.5,37656,10.31,72572.3,-11.09,-23.49,-30.01,0,*66
1487739790.75,37657,10.31,72564.8,-11.05,-23.43,-29.89,0,*69
1487739792.0,37658,10.31,72562.8,-11.05,-23.59,-30.01,0,*65
1487739793.27,37659,10.31,72554.3,-11.09,-24.11,-30.67,0,*63
1487739794.5,37660,10.31,72542.3,-11.05,-24.51,-31.17,0,*67
1487739795.73,37661,10.31,72564.0,-11.09,-24.57,-31.33,0,*6A
1487739797.0,37662,10.31,72564.3,-11.05,-24.41,-30.95,0,*6F
1487739798.23,37663,10.31,72566.5,-11.05,-24.51,-31.17,0,*64
1487739799.48,37664,10.31,72564.8,-11.05,-24.77,-31.39,0,*6B
1487739800.73,37665,10.31,72572.0,-11.05,-24.77,-31.39,0,*6A
1487739801.99,37666,10.31,72572.3,-11.09,-24.61,-31.23,0,*69
1487739803.28,37667,10.31,72576.3,-11.09,-24.25,-30.55,0,*68
1487739804.57,37668,10.31,72598.8,-11.09,-24.67,-31.23,0,*61
1487739805.84,37669,10.31,72592.0,-11.09,-24.57,-31.11,0,*62
1487739807.11,37670,10.31,72586.5,-11.09,-24.31,-30.89,0,*6A
1487739808.38,37671,10.31,72578.5,-11.05,-23.95,-30.51,0,*6B
1487739809.66,37672,10.31,72584.5,-11.09,-23.99,-30.51,0,*68
1487739810.94,37673,10.31,72574.3,-11.09,-24.31,-30.89,0,*69
1487739812.17,37674,10.31,72568.8,-11.09,-24.57,-31.01,0,*6F
1487739813.46,37675,10.31,72570.5,-11.09,-24.83,-31.39,0,*6C
1487739814.68,37676,10.31,72580.8,-11.05,-24.57,-31.05,0,*65
1487739815.95,37677,10.31,72580.8,-11.09,-24.67,-31.45,0,*6F
1487739817.2,37678,10.31,72586.3,-11.05,-24.71,-31.33,0,*6A
1487739818.45,37679,10.31,72580.5,-11.05,-24.57,-31.23,0,*6E
1487739819.73,37680,10.31,72596.0,-11.05,-24.71,-31.23,0,*6C
1487739821.01,37681,10.31,72608.3,-11.09,-24.41,-30.83,0,*69
1487739822.27,37682,10.31,72606.8,-11.09,-24.41,-31.01,0,*61
1487739823.52,37683,10.31,72596.5,-11.05,-24.61,-31.23,0,*6E
1487739824.82,37684,10.31,72590.0,-11.09,-24.41,-30.89,0,*66
1487739826.07,37685,10.25,72590.0,-11.05,-24.71,-31.33,0,*68
1487739827.34,37686,10.31,72594.5,-11.11,-24.83,-31.39,0,*69
1487739828.6,37687,10.31,72588.8,-11.09,-24.61,-31.11,0,*67
1487739829.82,37688,10.31,72594.5,-11.05,-24.57,-31.05,0,*64
1487739831.07,37689,10.31,72590.5,-11.09,-24.31,-30.83,0,*66
1487739832.32,37690,10.31,72590.0,-11.09,-24.31,-30.83,0,*6E
1487739833.57,37691,10.31,72588.3,-11.05,-24.35,-30.95,0,*60
1487739834.82,37692,10.31,72586.0,-11.05,-24.61,-31.23,0,*6E
1487739836.07,37693,10.31,72584.0,-11.09,-25.23,-31.91,0,*6D
1487739837.33,37694,10.31,72584.8,-11.09,-25.23,-31.91,0,*6A
1487739838.58,37695,10.31,72584.8,-11.09,-25.09,-31.61,0,*6C
1487739839.81,37696,10.31,72580.3,-11.09,-25.09,-31.79,0,*66
1487739841.05,37697,10.31,72578.8,-11.11,-25.09,-31.73,0,*64
1487739842.31,37698,10.31,72574.3,-11.13,-25.03,-31.67,0,*66
1487739843.54,37699,10.31,72568.5,-11.11,-24.97,-31.61,0,*6F
1487739844.79,37700,10.31,72572.5,-11.11,-24.77,-31.39,0,*6D
1487739846.01,37701,10.31,72574.0,-11.11,-24.93,-31.57,0,*6E
1487739847.25,37702,10.25,72570.3,-11.11,-24.77,-31.39,0,*6F
1487739848.52,37703,10.31,72574.0,-11.13,-24.67,-31.17,0,*61
1487739849.79,37704,10.31,72566.3,-11.11,-24.67,-31.23,0,*63
1487739851.02,37705,10.31,72568.0,-11.11,-25.13,-31.73,0,*65
1487739852.25,37706,10.31,72564.5,-11.11,-25.23,-31.73,0,*65
1487739853.49,37707,10.31,72584.8,-11.11,-25.09,-31.61,0,*6F
1487739854.72,37708,10.31,72582.5,-11.11,-24.93,-31.39,0,*6F
1487739855.99,37709,10.31,72584.8,-11.13,-24.67,-31.17,0,*6B
1487739857.23,37710,10.31,72590.0,-11.11,-24.61,-31.11,0,*61
1487739858.5,37711,10.31,72576.5,-11.11,-24.83,-31.39,0,*66
1487739859.73,37712,10.25,72570.8,-11.11,-25.09,-31.73,0,*68
1487739860.99,37713,10.31,72566.0,-11.13,-25.35,-31.85,0,*6D
1487739862.23,37714,10.31,72570.0,-11.13,-25.13,-31.79,0,*6D
1487739863.46,37715,10.25,72590.0,-11.11,-25.13,-31.73,0,*64
1487739864.76,37716,10.31,72568.8,-11.13,-24.83,-31.11,0,*69
1487739866.03,37717,10.31,72584.8,-11.11,-24.67,-31.23,0,*61
1487739867.29,37718,10.31,72590.3,-11.13,-24.67,-31.01,0,*6C
1487739868.56,37719,10.31,72588.5,-11.11,-24.11,-30.51,0,*6A
1487739869.82,37720,10.31,72570.0,-11.11,-24.11,-30.51,0,*60
1487739871.1,37721,10.31,72540.3,-11.11,-24.41,-30.89,0,*61
1487739872.35,37722,10.31,72532.3,-11.11,-24.77,-31.23,0,*66
1487739873.6,37723,10.31,72544.3,-11.09,-24.97,-31.57,0,*63
1487739874.8,37724,10.31,72560.8,-11.11,-25.35,-31.79,0,*68
1487739876.08,37725,10.25,72564.0,-11.13,-24.35,-30.73,0,*61
1487739877.32,37726,10.31,72574.3,-11.11,-23.79,-30.05,0,*6E
1487739878.6,37727,10.31,72590.8,-11.09,-23.99,-30.39,0,*67
1487739879.88,37728,10.31,72590.3,-11.09,-24.31,-30.73,0,*63
1487739881.13,37729,10.31,72574.0,-11.05,-24.77,-31.23,0,*68
1487739882.36,37730,10.31,72588.0,-11.09,-25.09,-31.67,0,*64
1487739883.62,37731,10.31,72586.3,-11.05,-24.87,-31.39,0,*65
1487739884.86,37732,10.25,72584.5,-11.09,-24.93,-31.45,0,*64
1487739886.09,37733,10.25,72594.3,-11.05,-25.19,-31.85,0,*66
1487739887.35,37734,10.25,72592.3,-11.09,-25.13,-31.61,0,*6D
1487739888.61,37735,10.31,72600.0,-11.09,-25.09,-31.73,0,*64
1487739889.89,37736,10.31,72600.3,-11.09,-25.29,-31.91,0,*69
1487739891.1,37737,10.31,72592.0,-11.11,-25.13,-31.79,0,*6E
1487739892.33,37738,10.25,72578.5,-11.11,-25.23,-31.61,0,*6B
1487739893.59,37739,10.31,72588.0,-11.09,-25.13,-31.57,0,*65
1487739894.85,37740,10.31,72586.5,-11.11,-25.45,-31.91,0,*6B
1487739896.12,37741,10.31,72598.3,-11.11,-25.55,-31.95,0,*6F
1487739897.35,37742,10.31,72610.3,-11.11,-25.09,-31.39,0,*63
1487739898.65,37743,10.31,72596.8,-11.09,-24.83,-31.23,0,*63
1487739899.88,37744,10.31,72596.3,-11.11,-24.97,-31.51,0,*6D
1487739901.15,37745,10.31,72590.5,-11.13,-24.67,-31.17,0,*63
1487739902.39,37746,10.31,72592.0,-11.09,-24.97,-31.45,0,*63
1487739903.63,37747,10.31,72580.3,-11.11,-24.77,-31.11,0,*64
1487739904.9,37748,10.31,72580.0,-11.11,-24.83,-31.23,0,*61
1487739906.17,37749,10.31,72578.0,-11.11,-24.67,-31.11,0,*6B
1487739907.45,37750,10.31,72578.0,-11.09,-24.67,-31.11,0,*6A
1487739908.69,37751,10.31,72578.3,-11.09,-24.61,-31.01,0,*6C
1487739909.95,37752,10.31,72580.8,-11.05,-24.51,-30.77,0,*60
1487739911.22,37753,10.25,72564.8,-11.09,-24.61,-30.89,0,*6F
1487739912.44,37754,10.25,72574.8,-11.05,-24.57,-31.05,0,*64
1487739913.7,37755,10.31,72560.8,-11.09,-24.83,-31.29,0,*6E
1487739914.91,37756,10.31,72556.8,-11.05,-24.93,-31.33,0,*6B
1487739916.15,37757,10.31,72566.5,-11.05,-24.93,-31.39,0,*60
1487739917.36,37758,10.31,72568.5,-11.05,-25.23,-31.67,0,*6E
1487739918.6,37759,10.31,72554.8,-11.05,-25.13,-31.61,0,*6A
1487739919.81,37760,10.31,72562.3,-11.05,-25.23,-31.67,0,*65
1487739921.05,37761,10.31,72570.3,-11.05,-25.39,-31.73,0,*6A
1487739922.27,37762,10.31,72576.5,-11.05,-25.61,-32.13,0,*61
1487739923.53,37763,10.25,72578.3,-11.09,-25.65,-32.07,0,*6D
1487739924.79,37764,10.31,72582.0,-11.09,-25.65,-31.95,0,*62
1487739926.08,37765,10.31,72594.5,-11.09,-25.55,-31.91,0,*64
1487739927.32,37766,10.31,72608.0,-11.05,-25.49,-31.91,0,*66
1487739928.59,37767,10.31,72592.8,-11.09,-24.83,-31.29,0,*6F
1487739929.82,37768,10.31,72606.3,-11.09,-24.97,-31.29,0,*65
1487739931.07,37769,10.31,72608.8,-11.09,-25.23,-31.57,0,*63
1487739932.34,37770,10.31,72608.0,-11.09,-24.61,-30.89,0,*6E
1487739933.58,37771,10.31,72610.8,-11.09,-24.61,-31.01,0,*6E
1487739934.81,37772,10.31,72632.0,-11.05,-24.61,-30.83,0,*6A
1487739936.06,37773,10.31,72626.5,-11.09,-23.69,-29.95,0,*67
1487739937.3,37774,10.31,72588.0,-11.05,-23.09,-29.13,0,*64
1487739938.51,37775,10.25,72564.0,-11.01,-23.89,-30.11,0,*63
1487739939.78,37776,10.31,72572.0,-11.03,-24.25,-30.45,0,*62
1487739941.0,37777,10.31,72576.3,-11.01,-23.75,-29.95,0,*66
1487739942.29,37778,10.31,72566.5,-10.99,-23.85,-30.05,0,*67
1487739943.53,37779,10.25,72562.5,-10.99,-24.05,-30.23,0,*6D
1487739944.81,37780,10.31,72540.8,-10.99,-24.47,-30.61,0,*6B
1487739946.05,37781,10.25,72536.3,-10.97,-24.35,-30.55,0,*66
1487739947.31,37782,10.25,72544.5,-10.97,-24.51,-30.89,0,*66
1487739948.54,37783,10.25,72556.0,-10.97,-25.45,-31.79,0,*6D
1487739949.78,37784,10.31,72566.8,-10.97,-25.19,-31.51,0,*69
1487739951.07,37785,10.31,72578.3,-10.99,-25.55,-31.95,0,*66
1487739952.37,37786,10.25,72578.8,-10.99,-25.71,-32.07,0,*6B
1487739953.64,37787,10.25,72586.0,-10.99,-25.65,-31.95,0,*67
1487739954.94,37788,10.31,72592.5,-10.99,-25.55,-31.95,0,*6B
1487739956.23,37789,10.31,72592.8,-10.99,-25.55,-31.95,0,*6A
1487739957.51,37790,10.25,72588.8,-11.01,-25.71,-32.07,0,*6C
1487739958.75,37791,10.31,72584.3,-11.01,-25.87,-32.07,0,*64
1487739959.96,37792,10.25,72582.8,-11.01,-25.13,-31.33,0,*6E
1487739961.21,37793,10.31,72588.3,-11.01,-25.29,-31.45,0,*67
1487739962.44,37794,10.31,72596.8,-11.01,-25.35,-31.51,0,*68
1487739963.69,37795,10.31,72604.8,-11.01,-25.03,-31.29,0,*63
1487739964.9,37796,10.31,72606.5,-11.01,-25.49,-31.67,0,*64
1487739966.14,37797,10.25,72588.0,-11.01,-25.49,-31.85,0,*69
1487739967.38,37798,10.25,72598.8,-10.99,-24.97,-31.17,0,*6F
1487739968.62,37799,10.31,72598.3,-11.01,-25.29,-31.45,0,*6D
1487739969.91,37800,10.31,72590.3,-11.01,-24.71,-30.77,0,*6E
1487739971.18,37801,10.25,72602.5,-10.99,-24.71,-31.01,0,*6F
1487739972.45,37802,10.25,72600.0,-10.99,-25.03,-31.29,0,*62
1487739973.69,37803,10.25,72598.3,-10.99,-25.35,-31.45,0,*6C
1487739974.96,37804,10.31,72604.0,-10.99,-25.29,-31.45,0,*66
1487739976.24,37805,10.31,72598.5,-10.99,-25.45,-31.85,0,*61
1487739977.5,37806,10.31,72588.8,-10.99,-25.97,-32.23,0,*62
1487739978.75,37807,10.25,72594.5,-11.01,-25.87,-32.19,0,*6B
1487739979.99,37808,10.31,72596.3,-11.01,-25.71,-32.01,0,*64
1487739981.23,37809,10.31,72596.5,-11.01,-25.71,-32.01,0,*65
1487739982.47,37810,10.31,72604.8,-11.03,-25.91,-32.23,0,*61
1487739983.74,37811,10.31,72598.0,-11.03,-25.61,-31.91,0,*65
1487739985.03,37812,10.31,72592.0,-11.03,-25.55,-31.85,0,*64
1487739986.33,37813,10.25,72582.0,-11.03,-25.71,-31.91,0,*66
1487739987.6,37814,10.31,72584.0,-11.03,-25.75,-32.01,0,*6F
1487739988.86,37815,10.31,72584.5,-11.03,-25.61,-31.91,0,*61
1487739990.16,37816,10.25,72602.3,-11.03,-25.71,-32.07,0,*6F
1487739991.43,37817,10.25,72602.3,-11.03,-25.61,-31.57,0,*69
1487739992.7,37818,10.25,72590.8,-11.03,-24.57,-30.61,0,*66
1487739993.98,37819,10.31,72590.8,-11.01,-24.71,-30.89,0,*67
1487739995.27,37820,10.31,72584.8,-11.03,-24.87,-30.95,0,*6B
1487739996.56,37821,10.31,72580.5,-11.01,-24.71,-30.89,0,*6C
1487739997.79,37822,10.31,72588.3,-11.01,-24.87,-31.01,0,*67
1487739999.03,37823,10.25,72562.0,-10.99,-25.13,-31.33,0,*6B
1487740000.28,37824,10.25,72570.3,-11.01,-25.65,-31.95,0,*61
1487740001.51,37825,10.31,72570.8,-10.99,-25.49,-31.67,0,*63
1487740002.8,37826,10.25,72590.0,-10.99,-25.45,-31.61,0,*6A
1487740004.09,37827,10.25,72578.5,-10.99,-25.03,-31.11,0,*6E
1487740005.36,37828,10.31,72582.5,-10.99,-25.29,-31.45,0,*68
1487740006.62,37829,10.25,72588.0,-10.99,-25.55,-31.67,0,*62
1487740007.86,37830,10.31,72594.8,-11.01,-25.35,-31.51,0,*69
1487740009.15,37831,10.25,72596.0,-10.99,-25.03,-31.11,0,*69
1487740010.42,37832,10.25,72594.0,-10.99,-24.21,-30.27,0,*6F
1487740011.69,37833,10.25,72596.5,-10.99,-24.57,-30.73,0,*6E
1487740012.9,37834,10.25,72584.0,-10.97,-24.97,-31.01,0,*6F
1487740014.14,37835,10.25,72574.8,-10.97,-25.45,-31.45,0,*60
1487740015.36,37836,10.25,72556.8,-10.97,-25.13,-31.29,0,*6A
1487740016.63,37837,10.25,72558.3,-10.97,-25.03,-31.11,0,*61
1487740017.87,37838,10.25,72558.8,-10.97,-25.55,-31.79,0,*63
1487740019.11,37839,10.31,72566.3,-10.97,-25.81,-32.01,0,*67
1487740020.34,37840,10.25,72568.5,-10.97,-25.81,-32.01,0,*69
1487740021.56,37841,10.31,72586.5,-10.97,-25.87,-32.01,0,*6E
1487740022.8,37842,10.25,72590.0,-10.99,-26.03,-32.01,0,*6C
1487740024.04,37843,10.25,72590.8,-10.99,-25.87,-32.01,0,*62
1487740025.31,37844,10.25,72594.5,-10.95,-25.97,-32.13,0,*6B
1487740026.53,37845,10.25,72588.5,-10.97,-26.03,-32.39,0,*6E
1487740027.77,37846,10.25,72600.3,-10.97,-25.97,-32.01,0,*68
1487740029.07,37847,10.31,72606.5,-10.99,-25.71,-31.95,0,*61
1487740030.35,37848,10.31,72604.8,-10.99,-26.03,-32.07,0,*60
1487740031.64,37849,10.25,72606.3,-10.99,-26.17,-32.19,0,*6B
1487740032.9,37850,10.25,72614.8,-10.99,-26.29,-32.35,0,*60
1487740034.16,37851,10.25,72614.8,-11.03,-26.23,-32.29,0,*64
1487740035.41,37852,10.31,72618.5,-11.03,-26.03,-32.13,0,*6C
1487740036.66,37853,10.25,72618.0,-11.01,-26.03,-32.07,0,*6A
1487740037.91,37854,10.25,72612.8,-11.01,-26.03,-32.07,0,*6D
1487740039.17,37855,10.31,72618.0,-11.03,-26.07,-32.29,0,*66
1487740040.45,37856,10.25,72608.8,-11.01,-26.17,-32.19,0,*65
1487740041.72,37857,10.25,72610.5,-11.03,-26.17,-32.39,0,*64
1487740042.99,37858,10.25,72610.3,-11.01,-26.13,-32.19,0,*6F
1487740044.23,37859,10.25,72582.0,-11.01,-25.65,-31.61,0,*60
1487740045.49,37860,10.31,72572.0,-11.03,-25.49,-31.57,0,*63
1487740046.76,37861,10.25,72570.8,-11.03,-25.23,-31.23,0,*6D
1487740048.03,37862,10.25,72572.3,-11.01,-25.55,-31.61,0,*6B
1487740049.31,37863,10.25,72576.8,-11.01,-25.71,-31.61,0,*6C
1487740050.54,37864,10.25,72572.3,-11.01,-25.35,-31.11,0,*6C
1487740051.81,37865,10.25,72580.3,-10.99,-25.45,-31.45,0,*6B
1487740053.07,37866,10.25,72574.8,-10.99,-25.55,-31.67,0,*69
1487740054.31,37867,10.31,72570.3,-10.99,-25.65,-31.67,0,*6B
1487740055.58,37868,10.25,72570.0,-10.99,-26.03,-32.07,0,*62
1487740056.85,37869,10.25,72570.5,-11.01,-26.13,-32.19,0,*6D
1487740058.15,37870,10.25,72566.8,-11.03,-26.33,-32.29,0,*66
1487740059.36,37871,10.25,72576.8,-11.01,-26.45,-32.39,0,*65
1487740060.61,37872,10.25,72576.8,-11.03,-26.39,-32.39,0,*6F
1487740061.88,37873,10.25,72578.0,-11.03,-26.49,-32.45,0,*62
1487740063.18,37874,10.25,72574.8,-11.03,-26.17,-32.07,0,*68
1487740064.42,37875,10.25,72580.0,-11.03,-25.91,-32.01,0,*62
1487740065.68,37876,10.31,72594.5,-11.01,-25.81,-31.85,0,*6D
1487740066.94,37877,10.25,72590.8,-11.01,-25.81,-31.85,0,*6C
1487740068.16,37878,10.31,72592.3,-11.01,-26.45,-32.39,0,*6C
1487740069.45,37879,10.31,72588.5,-11.03,-26.55,-32.63,0,*61
1487740070.74,37880,10.25,72584.5,-11.03,-26.55,-32.63,0,*67
1487740072.0,37881,10.25,72582.3,-11.03,-26.39,-32.29,0,*62
1487740073.25,37882,10.25,72592.0,-11.03,-26.49,-32.39,0,*67
1487740074.49,37883,10.25,72594.3,-11.05,-26.61,-32.79,0,*6E
1487740075.76,37884,10.25,72594.8,-11.05,-26.71,-32.63,0,*63
1487740077.02,37885,10.31,72598.5,-11.05,-26.55,-32.63,0,*64
1487740078.29,37886,10.25,72598.0,-11.05,-26.55,-32.45,0,*63
1487740079.52,37887,10.25,72598.0,-11.09,-26.23,-32.13,0,*6C
1487740080.79,37888,10.25,72582.0,-11.05,-25.71,-31.57,0,*68
1487740082.04,37889,10.25,72594.0,-11.05,-26.03,-31.91,0,*65
1487740083.29,37890,10.25,72590.0,-11.09,-26.13,-32.13,0,*69
1487740084.56,37891,10.25,72584.8,-11.09,-26.07,-32.07,0,*68
1487740085.77,37892,10.31,72580.3,-11.05,-26.23,-32.01,0,*67
1487740087.01,37893,10.31,72590.0,-11.05,-26.49,-32.45,0,*6A
1487740088.24,37894,10.25,72580.3,-11.05,-26.39,-32.39,0,*61
1487740089.49,37895,10.25,72568.3,-11.05,-26.03,-31.91,0,*68
1487740090.73,37896,10.25,72574.5,-11.05,-26.17,-32.13,0,*67
1487740091.96,37897,10.31,72582.3,-11.09,-26.45,-32.35,0,*69
1487740093.25,37898,10.25,72584.8,-11.09,-26.29,-32.19,0,*62